Location: Lac Lasalle
(46.0398°N, 74.1576°W)
Time: 03:57:02
(UTC-04:00)

ISS - Pass Details

Date: 28 March 2019
Orbit: 408 x 410 km, 51.6° (Epoch: 25 April)

Event Time Altitude Azimuth Distance (km) Brightness Sun altitude
Rises 22:07:01 0° 294° (WNW) 2,337 1.2 -27.5°
Reaches altitude 10° 22:09:12 10° 304° (WNW) 1,474 0.0 -27.7°
Enters shadow 22:10:27 19° 316° (NW) 1,034 -1.0 -27.9°
